Regional Weather Roundup
Issued by NWS Bismarck, ND

Home | Current Version | Previous Version | Text Only | Print | Product List | Glossary On
Versions: 1 2 3 4 5 6 7 8 9 10 11 12 13 14 15 16 17 18 19 20 21 22 23 24 25 26 27 28 29 30 31 32 33 34 35 36 37 38 39 40 41 42 43 44 45 46 47 48 49 50
950
ASUS43 KBIS 190110
RWRBIS

NWR BROADCAST TEXT
NATIONAL WEATHER SERVICE BISMARCK ND
700 PM CST SUN FEB 18 2018

NOTE: "FAIR" INDICATES FEW OR NO CLOUDS BELOW 12,000 FEET WITH NO
SIGNIFICANT WEATHER AND/OR OBSTRUCTIONS TO VISIBILITY.


CITY           SKY/WX    TMP DP  RH WIND       PRES   REMARKS
WILLISTON      FAIR       5  -2  72 N10       30.06R WCI -10
MINOT          FAIR       7  -2  66 NW14      30.04R WCI -10
MINOT AFB      CLOUDY     6  -4  64 N12       30.04R WCI -10
BISMARCK       FAIR      10   1  67 N14G22    29.99R WCI  -6
DICKINSON      CLOUDY     6  -1  73 N8        29.96R WCI  -7
GARRISON         N/A      7   0  73 N6        30.01R WCI  -3
HETTINGER ARPT LGT SNOW   5   0  79 N15       29.94R WCI -13
JAMESTOWN      FAIR       9   3  77 N21       29.95R WCI -11
CARRINGTON     FAIR       7   1  78 N7        30.01R WCI  -5
LINTON         FLURRIES  10   3  72 N20G25    29.96R WCI  -8
OAKES            N/A     10   5  79 N22G33    29.90R WCI  -9
TIOGA          FAIR       3  -6  66 N10       30.03R WCI -12
$$

CITY           SKY/WX    TMP DP  RH WIND       PRES   REMARKS
GRAND FORKS    MOCLDY    11   5  77 N22       30.00R WCI  -8
GRAND FORKS AF FAIR      10   1  67 N16       30.01R WCI  -7
DEVILS LAKE    FAIR       6   0  76 N12       30.01R WCI  -9
FARGO          FAIR      12   8  84 N18       29.91R WCI  -6
CANDO          FAIR       3  -2  78 N7        30.04R WCI  -9
CAVALIER         N/A      9   1  72 N13G18    30.05R WCI  -7
GWINNER          N/A     10   9  92 N21G30    29.90R FOG     WCI  -9
ROLLA          FAIR       3  -2  78 NW12      30.01R WCI -13
WALHALLA       FAIR       7   0  72 N13       30.06R WCI  -9
$$

CITY           SKY/WX    TMP DP  RH WIND       PRES   REMARKS
ABERDEEN       MIX PCPN  15   9  76 N24G33    29.87R WCI  -4
MOBRIDGE       FLURRIES  13   6  74 N22G30    29.87R WCI  -6
BUFFALO          N/A      8   3  80 N12       29.83R WCI  -7
RAPID CITY     LGT SNOW   8   4  83 N26       29.84R VSB 1   WCI -14
GLASGOW        MOCLDY     1  -5  75 NW8       30.06S WCI -13
SIDNEY         CLOUDY     4  -2  76 N9        30.07R WCI -10
WOLF POINT     CLOUDY     3  -4  72 NW8       30.10R WCI -10
GLENDIVE       FLURRIES   5   0  79 N10       30.03R WCI -10
MILES CITY     LGT SNOW   5   1  83 N10       30.02R FOG     WCI -10
BAKER          LGT SNOW   6   3  87 N9        29.95R FOG     WCI  -8
$$

CITY           SKY/WX    TMP DP  RH WIND       PRES   REMARKS
BILLINGS       CLOUDY     3   0  87 NE14      29.93R WCI -15
GREAT FALLS    FLURRIES   1  -4  79 NE10      29.99S WCI -15
REGINA         FLURRIES   0  -4  85 SW7       30.05R WCI -13
ESTEVAN        MOCLDY    -4 -13  65 NW8       30.08R WCI -19
$$





USA.gov is the U.S. government's official web portal to all federal, state and local government web resources and services.